20-01-2022, 00:00:06,    299,    0.2,    1.6,   0.00,   0.00, 1026.3,   84.4, -999.0
20-01-2022, 00:00:16,    299,    0.6,    1.7,   0.00,   0.00, 1026.3,   84.6, -999.0
20-01-2022, 00:00:26,    296,    1.6,    1.7,   0.00,   0.00, 1026.3,   84.7, -999.0
20-01-2022, 00:00:36,    299,    0.4,    1.7,   0.00,   0.00, 1026.3,   84.6, -999.0
20-01-2022, 00:00:46,    299,    0.0,    1.5,   0.00,   0.00, 1026.2,   84.3, -999.0
20-01-2022, 00:00:56,    299,    0.0,    1.6,   0.00,   0.00, 1026.2,   84.3, -999.0
20-01-2022, 00:01:06,    296,    0.3,    1.7,   0.00,   0.00, 1026.3,   84.5, -999.0
20-01-2022, 00:01:16,    304,    1.8,    1.7,   0.00,   0.00, 1026.3,   84.7, -999.0
20-01-2022, 00:01:26,    311,    1.0,    1.7,   0.00,   0.00, 1026.3,   84.6, -999.0
20-01-2022, 00:01:36,    340,    0.3,    1.6,   0.00,   0.00, 1026.2,   84.4, -999.0
20-01-2022, 00:01:45,    326,    0.6,    1.6,   0.00,   0.00, 1026.3,   84.6, -999.0
20-01-2022, 00:01:56,    300,    1.4,    1.7,   0.00,   0.00, 1026.3,   84.8, -999.0
20-01-2022, 00:02:06,    300,    0.3,    1.7,   0.00,   0.00, 1026.3,   84.6, -999.0
20-01-2022, 00:02:15,    301,    0.0,    1.6,   0.00,   0.00, 1026.2,   84.4, -999.0
20-01-2022, 00:02:25,    300,    0.6,    1.6,   0.00,   0.00, 1026.3,   84.8, -999.0
20-01-2022, 00:02:36,    301,    0.2,    1.7,   0.00,   0.00, 1026.3,   84.6, -999.0
20-01-2022, 00:02:45,    300,    0.1,    1.6,   0.00,   0.00, 1026.2,   84.5, -999.0
20-01-2022, 00:02:55,    300,    0.0,    1.6,   0.00,   0.00, 1026.2,   84.4, -999.0
20-01-2022, 00:03:05,    300,    0.0,    1.6,   0.00,   0.00, 1026.2,   84.3, -999.0
20-01-2022, 00:03:15,    300,    0.0,    1.5,   0.00,   0.00, 1026.2,   84.3, -999.0
20-01-2022, 00:03:25,    301,    0.0,    1.5,   0.00,   0.00, 1026.2,   84.3, -999.0
20-01-2022, 00:03:35,    300,    0.0,    1.5,   0.00,   0.00, 1026.2,   84.3, -999.0
20-01-2022, 00:03:45,    300,    0.0,    1.5,   0.00,   0.00, 1026.2,   84.3, -999.0
20-01-2022, 00:03:55,    300,    0.0,    1.5,   0.00,   0.00, 1026.2,   84.2, -999.0
20-01-2022, 00:04:05,    300,    0.0,    1.5,   0.00,   0.00, 1026.2,   84.3, -999.0
20-01-2022, 00:04:15,    300,    0.0,    1.5,   0.00,   0.00, 1026.2,   84.2, -999.0
20-01-2022, 00:04:25,    300,    0.0,    1.5,   0.00,   0.00, 1026.2,   84.3, -999.0
20-01-2022, 00:04:35,    300,    0.0,    1.5,   0.00,   0.00, 1026.2,   84.3, -999.0
20-01-2022, 00:04:45,    300,    0.0,    1.5,   0.00,   0.00, 1026.2,   84.2, -999.0
20-01-2022, 00:04:55,    300,    0.0,    1.5,   0.00,   0.00, 1026.2,   84.4, -999.0
20-01-2022, 00:05:05,    301,    0.0,    1.5,   0.00,   0.00, 1026.3,   84.4, -999.0
20-01-2022, 00:05:15,    300,    0.4,    1.6,   0.00,   0.00, 1026.4,   84.7, -999.0
20-01-2022, 00:05:24,    300,    0.2,    1.6,   0.00,   0.00, 1026.3,   84.7, -999.0
20-01-2022, 00:05:35,    300,    0.0,    1.5,   0.00,   0.00, 1026.2,   84.4, -999.0
20-01-2022, 00:05:45,    299,    0.0,    1.5,   0.00,   0.00, 1026.2,   84.5, -999.0
20-01-2022, 00:05:54,    300,    0.0,    1.5,   0.00,   0.00, 1026.2,   84.4, -999.0
20-01-2022, 00:06:04,    302,    0.1,    1.5,   0.00,   0.00, 1026.3,   84.6, -999.0
20-01-2022, 00:06:14,    310,    0.0,    1.5,   0.00,   0.00, 1026.3,   84.5, -999.0
20-01-2022, 00:06:24,    321,    0.2,    1.5,   0.00,   0.00, 1026.3,   84.6, -999.0
20-01-2022, 00:06:34,    320,    0.8,    1.6,   0.00,   0.00, 1026.4,   84.7, -999.0
20-01-2022, 00:06:44,    329,    0.7,    1.6,   0.00,   0.00, 1026.4,   84.7, -999.0
20-01-2022, 00:06:54,    299,    0.9,    1.6,   0.00,   0.00, 1026.4,   84.9, -999.0
20-01-2022, 00:07:04,    298,    0.2,    1.6,   0.00,   0.00, 1026.4,   84.9, -999.0
20-01-2022, 00:07:14,    297,    0.0,    1.5,   0.00,   0.00, 1026.2,   84.5, -999.0
20-01-2022, 00:07:24,    299,    0.0,    1.5,   0.00,   0.00, 1026.2,   84.5, -999.0
20-01-2022, 00:07:34,    299,    0.1,    1.5,   0.00,   0.00, 1026.3,   84.8, -999.0
20-01-2022, 00:07:44,    307,    0.0,    1.5,   0.00,   0.00, 1026.3,   84.5, -999.0
20-01-2022, 00:07:54,    307,    0.0,    1.4,   0.00,   0.00, 1026.3,   84.4, -999.0
20-01-2022, 00:08:04,    307,    0.0,    1.4,   0.00,   0.00, 1026.3,   84.4, -999.0
20-01-2022, 00:08:14,    307,    0.0,    1.4,   0.00,   0.00, 1026.2,   84.4, -999.0
20-01-2022, 00:08:24,    328,    0.2,    1.5,   0.00,   0.00, 1026.4,   84.7, -999.0
20-01-2022, 00:08:34,    299,    0.1,    1.5,   0.00,   0.00, 1026.4,   84.8, -999.0
20-01-2022, 00:08:44,    300,    0.0,    1.5,   0.00,   0.00, 1026.3,   84.7, -999.0
20-01-2022, 00:08:54,    300,    0.0,    1.5,   0.00,   0.00, 1026.3,   84.7, -999.0
20-01-2022, 00:09:03,    299,    0.0,    1.5,   0.00,   0.00, 1026.3,   84.6, -999.0
20-01-2022, 00:09:14,    299,    0.0,    1.5,   0.00,   0.00, 1026.3,   84.6, -999.0
20-01-2022, 00:09:24,    300,    0.0,    1.5,   0.00,   0.00, 1026.3,   84.6, -999.0
20-01-2022, 00:09:33,    300,    0.0,    1.5,   0.00,   0.00, 1026.3,   84.5, -999.0
20-01-2022, 00:09:43,    300,    0.0,    1.4,   0.00,   0.00, 1026.3,   84.6, -999.0
20-01-2022, 00:09:53,    302,    0.0,    1.4,   0.00,   0.00, 1026.3,   84.6, -999.0
20-01-2022, 00:10:03,    347,    0.6,    1.6,   0.00,   0.00, 1026.4,   85.1, -999.0
20-01-2022, 00:10:13,    346,    0.0,    1.4,   0.00,   0.00, 1026.3,   84.7, -999.0
20-01-2022, 00:10:23,    347,    0.0,    1.4,   0.00,   0.00, 1026.3,   84.7, -999.0
20-01-2022, 00:10:33,    347,    0.0,    1.4,   0.00,   0.00, 1026.3,   84.8, -999.0
20-01-2022, 00:10:43,    346,    0.0,    1.4,   0.00,   0.00, 1026.3,   84.7, -999.0
20-01-2022, 00:10:53,    347,    0.0,    1.4,   0.00,   0.00, 1026.3,   84.7, -999.0
20-01-2022, 00:11:03,    346,    0.0,    1.3,   0.00,   0.00, 1026.3,   84.7, -999.0
20-01-2022, 00:11:13,    347,    0.0,    1.4,   0.00,   0.00, 1026.3,   84.9, -999.0
20-01-2022, 00:11:23,    347,    0.0,    1.4,   0.00,   0.00, 1026.4,   84.8, -999.0
20-01-2022, 00:11:33,    347,    0.2,    1.5,   0.00,   0.00, 1026.5,   85.1, -999.0
20-01-2022, 00:11:43,    346,    0.0,    1.4,   0.00,   0.00, 1026.3,   84.8, -999.0
20-01-2022, 00:11:53,    343,    0.0,    1.4,   0.00,   0.00, 1026.3,   84.8, -999.0
20-01-2022, 00:12:03,    346,    0.0,    1.4,   0.00,   0.00, 1026.3,   84.7, -999.0
20-01-2022, 00:12:12,    346,    0.0,    1.4,   0.00,   0.00, 1026.3,   84.7, -999.0
20-01-2022, 00:12:23,    347,    0.0,    1.5,   0.00,   0.00, 1026.3,   84.8, -999.0
20-01-2022, 00:12:33,    347,    0.0,    1.4,   0.00,   0.00, 1026.3,   84.8, -999.0
20-01-2022, 00:12:42,    346,    0.0,    1.4,   0.00,   0.00, 1026.3,   84.7, -999.0
20-01-2022, 00:12:52,    346,    0.0,    1.3,   0.00,   0.00, 1026.3,   84.7, -999.0
20-01-2022, 00:13:03,    346,    0.0,    1.4,   0.00,   0.00, 1026.4,   84.7, -999.0
20-01-2022, 00:13:12,    347,    0.0,    1.4,   0.00,   0.00, 1026.3,   84.8, -999.0
20-01-2022, 00:13:22,    346,    0.0,    1.4,   0.00,   0.00, 1026.4,   84.8, -999.0
20-01-2022, 00:13:32,    347,    0.0,    1.4,   0.00,   0.00, 1026.4,   84.8, -999.0
20-01-2022, 00:13:42,    346,    0.0,    1.3,   0.00,   0.00, 1026.4,   84.7, -999.0
20-01-2022, 00:13:52,    347,    0.0,    1.3,   0.00,   0.00, 1026.4,   84.8, -999.0
20-01-2022, 00:14:02,    346,    0.0,    1.4,   0.00,   0.00, 1026.4,   85.0, -999.0
20-01-2022, 00:14:12,    346,    0.0,    1.4,   0.00,   0.00, 1026.4,   84.8, -999.0
20-01-2022, 00:14:22,    347,    0.4,    1.4,   0.00,   0.00, 1026.5,   85.1, -999.0
20-01-2022, 00:14:32,    329,    1.0,    1.5,   0.00,   0.00, 1026.5,   85.3, -999.0
20-01-2022, 00:14:42,    329,    0.0,    1.5,   0.00,   0.00, 1026.4,   85.0, -999.0
20-01-2022, 00:14:52,    329,    0.5,    1.5,   0.00,   0.00, 1026.5,   85.2, -999.0
20-01-2022, 00:15:02,    328,    0.4,    1.5,   0.00,   0.00, 1026.5,   85.2, -999.0
20-01-2022, 00:15:12,    329,    0.0,    1.3,   0.00,   0.00, 1026.4,   84.8, -999.0
20-01-2022, 00:15:21,    328,    0.0,    1.4,   0.00,   0.00, 1026.4,   85.1, -999.0
20-01-2022, 00:15:32,    329,    0.1,    1.3,   0.00,   0.00, 1026.4,   85.0, -999.0
20-01-2022, 00:15:42,    329,    0.1,    1.3,   0.00,   0.00, 1026.5,   85.2, -999.0
20-01-2022, 00:15:51,    329,    0.0,    1.2,   0.00,   0.00, 1026.4,   85.0, -999.0
20-01-2022, 00:16:01,    329,    0.0,    1.3,   0.00,   0.00, 1026.4,   85.1, -999.0
20-01-2022, 00:16:12,    329,    0.0,    1.4,   0.00,   0.00, 1026.4,   85.1, -999.0
20-01-2022, 00:16:21,    328,    0.1,    1.4,   0.00,   0.00, 1026.4,   85.3, -999.0
20-01-2022, 00:16:31,    329,    0.0,    1.2,   0.00,   0.00, 1026.4,   85.1, -999.0
20-01-2022, 00:16:42,    329,    0.6,    1.2,   0.00,   0.00, 1026.5,   85.4, -999.0
20-01-2022, 00:16:51,    328,    0.2,    1.4,   0.00,   0.00, 1026.5,   85.5, -999.0
20-01-2022, 00:17:01,    328,    0.4,    1.4,   0.00,   0.00, 1026.5,   85.6, -999.0
20-01-2022, 00:17:11,    329,    0.1,    1.4,   0.00,   0.00, 1026.4,   85.4, -999.0
20-01-2022, 00:17:21,    328,    0.1,    1.4,   0.00,   0.00, 1026.3,   85.3, -999.0
20-01-2022, 00:17:31,    328,    0.0,    1.3,   0.00,   0.00, 1026.3,   85.1, -999.0
20-01-2022, 00:17:41,    328,    0.0,    1.4,   0.00,   0.00, 1026.3,   85.1, -999.0
20-01-2022, 00:17:51,    328,    0.0,    1.4,   0.00,   0.00, 1026.3,   85.2, -999.0
20-01-2022, 00:18:01,    327,    0.1,    1.4,   0.00,   0.00, 1026.4,   85.4, -999.0
20-01-2022, 00:18:11,    327,    0.0,    1.3,   0.00,   0.00, 1026.3,   85.1, -999.0
20-01-2022, 00:18:21,    330,    0.1,    1.3,   0.00,   0.00, 1026.3,   85.1, -999.0
20-01-2022, 00:18:31,    327,    0.0,    1.3,   0.00,   0.00, 1026.3,   85.1, -999.0
20-01-2022, 00:18:41,    328,    0.0,    1.3,   0.00,   0.00, 1026.3,   85.0, -999.0
20-01-2022, 00:18:51,    327,    0.0,    1.3,   0.00,   0.00, 1026.2,   85.1, -999.0
20-01-2022, 00:19:00,    328,    0.0,    1.3,   0.00,   0.00, 1026.2,   85.2, -999.0
20-01-2022, 00:19:11,    327,    0.0,    1.3,   0.00,   0.00, 1026.3,   85.3, -999.0
20-01-2022, 00:19:21,    327,    0.1,    1.3,   0.00,   0.00, 1026.3,   85.4, -999.0
20-01-2022, 00:19:30,    327,    0.0,    1.2,   0.00,   0.00, 1026.3,   85.3, -999.0
20-01-2022, 00:19:40,    328,    0.4,    1.3,   0.00,   0.00, 1026.3,   85.4, -999.0
20-01-2022, 00:19:51,    331,    0.8,    1.4,   0.00,   0.00, 1026.4,   85.6, -999.0
20-01-2022, 00:20:00,    331,    0.0,    1.3,   0.00,   0.00, 1026.3,   85.4, -999.0
20-01-2022, 00:20:10,    331,    0.0,    1.3,   0.00,   0.00, 1026.3,   85.3, -999.0
20-01-2022, 00:20:20,    330,    0.0,    1.3,   0.00,   0.00, 1026.3,   85.3, -999.0
20-01-2022, 00:20:30,    330,    0.0,    1.3,   0.00,   0.00, 1026.3,   85.3, -999.0
20-01-2022, 00:20:40,    330,    0.2,    1.3,   0.00,   0.00, 1026.3,   85.4, -999.0
20-01-2022, 00:20:50,    330,    0.2,    1.3,   0.00,   0.00, 1026.4,   85.4, -999.0
20-01-2022, 00:21:00,    330,    0.1,    1.4,   0.00,   0.00, 1026.3,   85.5, -999.0
20-01-2022, 00:21:10,    330,    0.0,    1.3,   0.00,   0.00, 1026.3,   85.2, -999.0
20-01-2022, 00:21:20,    330,    0.0,    1.2,   0.00,   0.00, 1026.3,   85.3, -999.0
20-01-2022, 00:21:30,    330,    0.0,    1.2,   0.00,   0.00, 1026.3,   85.3, -999.0
20-01-2022, 00:21:40,    330,    0.0,    1.3,   0.00,   0.00, 1026.2,   85.2, -999.0
20-01-2022, 00:21:50,    331,    0.0,    1.2,   0.00,   0.00, 1026.2,   85.2, -999.0
20-01-2022, 00:22:00,    330,    0.0,    1.2,   0.00,   0.00, 1026.2,   85.2, -999.0
20-01-2022, 00:22:10,    330,    0.0,    1.3,   0.00,   0.00, 1026.2,   85.2, -999.0
20-01-2022, 00:22:20,    324,    0.1,    1.3,   0.00,   0.00, 1026.3,   85.5, -999.0
20-01-2022, 00:22:30,    324,    0.0,    1.2,   0.00,   0.00, 1026.3,   85.3, -999.0
20-01-2022, 00:22:39,    324,    0.0,    1.3,   0.00,   0.00, 1026.3,   85.4, -999.0
20-01-2022, 00:22:49,    324,    0.0,    1.2,   0.00,   0.00, 1026.2,   85.3, -999.0
20-01-2022, 00:23:00,    324,    0.0,    1.2,   0.00,   0.00, 1026.3,   85.3, -999.0
20-01-2022, 00:23:09,    324,    0.0,    1.2,   0.00,   0.00, 1026.2,   85.4, -999.0
20-01-2022, 00:23:19,    324,    0.0,    1.3,   0.00,   0.00, 1026.2,   85.3, -999.0
20-01-2022, 00:23:30,    324,    0.0,    1.2,   0.00,   0.00, 1026.3,   85.6, -999.0
20-01-2022, 00:23:39,    324,    0.3,    1.3,   0.00,   0.00, 1026.4,   85.7, -999.0
20-01-2022, 00:23:49,    324,    0.0,    1.3,   0.00,   0.00, 1026.2,   85.4, -999.0
20-01-2022, 00:23:59,    324,    0.0,    1.2,   0.00,   0.00, 1026.2,   85.3, -999.0
20-01-2022, 00:24:09,    324,    0.0,    1.1,   0.00,   0.00, 1026.2,   85.3, -999.0
20-01-2022, 00:24:19,    324,    0.0,    1.2,   0.00,   0.00, 1026.2,   85.4, -999.0
20-01-2022, 00:24:29,    324,    0.0,    1.2,   0.00,   0.00, 1026.2,   85.4, -999.0
20-01-2022, 00:24:39,    324,    0.0,    1.2,   0.00,   0.00, 1026.2,   85.4, -999.0
20-01-2022, 00:24:49,    324,    0.0,    1.3,   0.00,   0.00, 1026.2,   85.4, -999.0
20-01-2022, 00:24:59,    324,    0.0,    1.2,   0.00,   0.00, 1026.2,   85.4, -999.0
20-01-2022, 00:25:09,    324,    0.0,    1.2,   0.00,   0.00, 1026.2,   85.3, -999.0
20-01-2022, 00:25:19,    324,    0.0,    1.2,   0.00,   0.00, 1026.2,   85.3, -999.0
20-01-2022, 00:25:29,    324,    0.4,    1.3,   0.00,   0.00, 1026.3,   85.7, -999.0
20-01-2022, 00:25:39,    324,    0.0,    1.2,   0.00,   0.00, 1026.2,   85.5, -999.0
20-01-2022, 00:25:49,    324,    0.0,    1.2,   0.00,   0.00, 1026.2,   85.6, -999.0
20-01-2022, 00:25:59,    324,    0.0,    1.2,   0.00,   0.00, 1026.2,   85.5, -999.0
20-01-2022, 00:26:09,    324,    0.0,    1.3,   0.00,   0.00, 1026.2,   85.5, -999.0
20-01-2022, 00:26:18,    324,    0.0,    1.2,   0.00,   0.00, 1026.2,   85.4, -999.0
20-01-2022, 00:26:28,    324,    0.0,    1.2,   0.00,   0.00, 1026.2,   85.5, -999.0
20-01-2022, 00:26:39,    266,    0.7,    1.4,   0.00,   0.00, 1026.3,   85.9, -999.0
20-01-2022, 00:26:48,    265,    0.0,    1.3,   0.00,   0.00, 1026.2,   85.6, -999.0
20-01-2022, 00:26:58,    266,    0.0,    1.2,   0.00,   0.00, 1026.2,   85.5, -999.0
20-01-2022, 00:27:08,    265,    0.0,    1.3,   0.00,   0.00, 1026.2,   85.7, -999.0
20-01-2022, 00:27:18,    265,    0.0,    1.3,   0.00,   0.00, 1026.2,   85.7, -999.0
20-01-2022, 00:27:28,    266,    0.0,    1.3,   0.00,   0.00, 1026.2,   85.6, -999.0
20-01-2022, 00:27:38,    266,    0.0,    1.3,   0.00,   0.00, 1026.2,   85.7, -999.0
20-01-2022, 00:27:48,    265,    0.0,    1.2,   0.00,   0.00, 1026.2,   85.6, -999.0
20-01-2022, 00:27:58,    265,    0.0,    1.3,   0.00,   0.00, 1026.2,   85.6, -999.0
20-01-2022, 00:28:08,    265,    0.0,    1.3,   0.00,   0.00, 1026.2,   85.5, -999.0
20-01-2022, 00:28:18,    265,    0.0,    1.2,   0.00,   0.00, 1026.2,   85.6, -999.0
20-01-2022, 00:28:28,    266,    0.0,    1.2,   0.00,   0.00, 1026.2,   85.6, -999.0
20-01-2022, 00:28:38,    266,    0.0,    1.2,   0.00,   0.00, 1026.2,   85.6, -999.0
20-01-2022, 00:28:48,    266,    0.0,    1.2,   0.00,   0.00, 1026.2,   85.6, -999.0
20-01-2022, 00:28:58,    266,    0.0,    1.3,   0.00,   0.00, 1026.2,   85.6, -999.0
20-01-2022, 00:29:08,    267,    0.0,    1.3,   0.00,   0.00, 1026.2,   85.8, -999.0
20-01-2022, 00:29:18,    267,    0.0,    1.3,   0.00,   0.00, 1026.2,   85.8, -999.0
20-01-2022, 00:29:28,    269,    0.0,    1.3,   0.00,   0.00, 1026.1,   85.9, -999.0
20-01-2022, 00:29:37,    273,    0.0,    1.2,   0.00,   0.00, 1026.1,   85.9, -999.0
20-01-2022, 00:29:48,    273,    0.0,    1.3,   0.00,   0.00, 1026.1,   85.9, -999.0
20-01-2022, 00:29:57,    273,    0.0,    1.3,   0.00,   0.00, 1026.2,   85.9, -999.0
20-01-2022, 00:30:07,    273,    0.0,    1.2,   0.00,   0.00, 1026.2,   85.9, -999.0
20-01-2022, 00:30:18,    273,    0.0,    1.2,   0.00,   0.00, 1026.2,   85.9, -999.0
20-01-2022, 00:30:27,    273,    0.0,    1.3,   0.00,   0.00, 1026.2,   85.7, -999.0
20-01-2022, 00:30:37,    274,    0.0,    1.3,   0.00,   0.00, 1026.2,   85.9, -999.0
20-01-2022, 00:30:47,    275,    0.0,    1.3,   0.00,   0.00, 1026.2,   85.8, -999.0
20-01-2022, 00:30:57,    275,    0.0,    1.4,   0.00,   0.00, 1026.2,   85.8, -999.0
20-01-2022, 00:31:07,    275,    0.0,    1.3,   0.00,   0.00, 1026.2,   85.9, -999.0
20-01-2022, 00:31:17,    275,    0.0,    1.2,   0.00,   0.00, 1026.2,   85.7, -999.0
20-01-2022, 00:31:27,    277,    0.0,    1.3,   0.00,   0.00, 1026.2,   85.8, -999.0
20-01-2022, 00:31:37,    350,    0.0,    1.3,   0.00,   0.00, 1026.2,   85.8, -999.0
20-01-2022, 00:31:47,    349,    0.1,    1.3,   0.00,   0.00, 1026.2,   86.0, -999.0
20-01-2022, 00:31:57,    350,    0.0,    1.3,   0.00,   0.00, 1026.2,   85.7, -999.0
20-01-2022, 00:32:07,    350,    0.0,    1.3,   0.00,   0.00, 1026.2,   85.7, -999.0
20-01-2022, 00:32:17,    350,    0.0,    1.3,   0.00,   0.00, 1026.2,   85.7, -999.0
20-01-2022, 00:32:27,    343,    0.0,    1.3,   0.00,   0.00, 1026.2,   85.8, -999.0
20-01-2022, 00:32:37,    343,    0.0,    1.3,   0.00,   0.00, 1026.2,   85.9, -999.0
20-01-2022, 00:32:47,    344,    0.0,    1.3,   0.00,   0.00, 1026.2,   85.9, -999.0
20-01-2022, 00:32:57,    343,    0.8,    1.4,   0.00,   0.00, 1026.3,   86.1, -999.0
20-01-2022, 00:33:07,    343,    0.0,    1.4,   0.00,   0.00, 1026.2,   86.0, -999.0
20-01-2022, 00:33:16,    343,    0.3,    1.4,   0.00,   0.00, 1026.3,   86.2, -999.0
20-01-2022, 00:33:27,    343,    0.3,    1.4,   0.00,   0.00, 1026.3,   86.2, -999.0
20-01-2022, 00:33:36,    343,    0.0,    1.3,   0.00,   0.00, 1026.2,   86.0, -999.0
20-01-2022, 00:33:46,    342,    0.0,    1.3,   0.00,   0.00, 1026.2,   85.9, -999.0
20-01-2022, 00:33:56,    343,    0.0,    1.3,   0.00,   0.00, 1026.2,   85.9, -999.0
20-01-2022, 00:34:06,    343,    0.0,    1.3,   0.00,   0.00, 1026.2,   85.8, -999.0
20-01-2022, 00:34:16,    343,    0.6,    1.4,   0.00,   0.00, 1026.3,   86.2, -999.0
20-01-2022, 00:34:26,    343,    0.0,    1.4,   0.00,   0.00, 1026.3,   85.9, -999.0
20-01-2022, 00:34:36,    342,    0.0,    1.4,   0.00,   0.00, 1026.2,   85.8, -999.0
20-01-2022, 00:34:46,    343,    0.0,    1.4,   0.00,   0.00, 1026.2,   85.9, -999.0
20-01-2022, 00:34:56,    342,    0.0,    1.4,   0.00,   0.00, 1026.2,   85.7, -999.0
20-01-2022, 00:35:06,    343,    0.0,    1.4,   0.00,   0.00, 1026.2,   85.8, -999.0
20-01-2022, 00:35:16,    343,    0.2,    1.4,   0.00,   0.00, 1026.3,   86.0, -999.0
20-01-2022, 00:35:26,    343,    0.4,    1.4,   0.00,   0.00, 1026.3,   86.1, -999.0
20-01-2022, 00:35:36,    343,    0.8,    1.6,   0.00,   0.00, 1026.3,   86.1, -999.0
20-01-2022, 00:35:46,    343,    0.4,    1.4,   0.00,   0.00, 1026.3,   86.0, -999.0
20-01-2022, 00:35:56,    309,    1.4,    1.4,   0.00,   0.00, 1026.3,   86.1, -999.0
20-01-2022, 00:36:06,    307,    0.5,    1.5,   0.00,   0.00, 1026.3,   86.1, -999.0
20-01-2022, 00:36:16,    305,    0.4,    1.4,   0.00,   0.00, 1026.3,   86.1, -999.0
20-01-2022, 00:36:25,    304,    0.0,    1.4,   0.00,   0.00, 1026.2,   85.8, -999.0
20-01-2022, 00:36:36,    304,    0.0,    1.4,   0.00,   0.00, 1026.2,   85.9, -999.0
20-01-2022, 00:36:46,    308,    0.0,    1.2,   0.00,   0.00, 1026.2,   85.6, -999.0
20-01-2022, 00:36:55,    308,    0.0,    1.4,   0.00,   0.00, 1026.2,   85.8, -999.0
20-01-2022, 00:37:06,    308,    0.0,    1.3,   0.00,   0.00, 1026.2,   85.7, -999.0
20-01-2022, 00:37:15,    308,    0.0,    1.2,   0.00,   0.00, 1026.2,   85.5, -999.0
20-01-2022, 00:37:25,    343,    0.5,    1.4,   0.00,   0.00, 1026.3,   85.8, -999.0
20-01-2022, 00:37:35,    339,    0.5,    1.4,   0.00,   0.00, 1026.3,   85.9, -999.0
20-01-2022, 00:37:45,    338,    0.0,    1.4,   0.00,   0.00, 1026.2,   85.6, -999.0
20-01-2022, 00:37:55,    339,    0.1,    1.4,   0.00,   0.00, 1026.3,   85.7, -999.0
20-01-2022, 00:38:05,    339,    0.0,    1.4,   0.00,   0.00, 1026.3,   85.7, -999.0
20-01-2022, 00:38:15,    339,    0.9,    1.4,   0.00,   0.00, 1026.4,   86.0, -999.0
20-01-2022, 00:38:25,    318,    1.6,    1.5,   0.00,   0.00, 1026.4,   86.1, -999.0
20-01-2022, 00:38:35,    332,    1.3,    1.4,   0.00,   0.00, 1026.4,   86.1, -999.0
20-01-2022, 00:38:45,    332,    0.7,    1.4,   0.00,   0.00, 1026.4,   85.9, -999.0
20-01-2022, 00:38:55,    332,    1.1,    1.4,   0.00,   0.00, 1026.4,   85.9, -999.0
20-01-2022, 00:39:05,    332,    1.1,    1.4,   0.00,   0.00, 1026.4,   85.9, -999.0
20-01-2022, 00:39:15,    332,    1.0,    1.4,   0.00,   0.00, 1026.4,   85.9, -999.0
20-01-2022, 00:39:25,    332,    0.0,    1.4,   0.00,   0.00, 1026.2,   85.5, -999.0
20-01-2022, 00:39:35,    332,    0.5,    1.4,   0.00,   0.00, 1026.4,   85.8, -999.0
20-01-2022, 00:39:45,    280,    1.3,    1.3,   0.00,   0.00, 1026.4,   85.9, -999.0
20-01-2022, 00:39:55,    280,    0.5,    1.3,   0.00,   0.00, 1026.4,   85.8, -999.0
20-01-2022, 00:40:04,    320,    1.0,    1.4,   0.00,   0.00, 1026.3,   85.7, -999.0
20-01-2022, 00:40:15,    313,    2.2,    1.4,   0.00,   0.00, 1026.4,   85.9, -999.0
20-01-2022, 00:40:25,    313,    1.4,    1.4,   0.00,   0.00, 1026.4,   86.1, -999.0
20-01-2022, 00:40:34,    313,    0.6,    1.4,   0.00,   0.00, 1026.5,   86.1, -999.0
20-01-2022, 00:40:44,    339,    0.7,    1.5,   0.00,   0.00, 1026.4,   86.0, -999.0
20-01-2022, 00:40:54,    335,    1.2,    1.5,   0.00,   0.00, 1026.4,   86.0, -999.0
20-01-2022, 00:41:04,    330,    1.0,    1.4,   0.00,   0.00, 1026.4,   86.0, -999.0
20-01-2022, 00:41:14,    330,    0.9,    1.4,   0.00,   0.00, 1026.4,   85.9, -999.0
20-01-2022, 00:41:24,    302,    0.5,    1.4,   0.00,   0.00, 1026.5,   85.9, -999.0
20-01-2022, 00:41:34,    300,    0.6,    1.4,   0.00,   0.00, 1026.5,   85.7, -999.0
20-01-2022, 00:41:44,    280,    0.3,    1.4,   0.00,   0.00, 1026.5,   85.7, -999.0
20-01-2022, 00:41:54,    280,    0.0,    1.3,   0.00,   0.00, 1026.4,   85.5, -999.0
20-01-2022, 00:42:04,    285,    0.2,    1.4,   0.00,   0.00, 1026.4,   85.6, -999.0
20-01-2022, 00:42:14,    284,    0.0,    1.4,   0.00,   0.00, 1026.4,   85.5, -999.0
20-01-2022, 00:42:24,    285,    0.0,    1.2,   0.00,   0.00, 1026.4,   85.5, -999.0
20-01-2022, 00:42:34,    288,    0.1,    1.3,   0.00,   0.00, 1026.4,   85.5, -999.0
20-01-2022, 00:42:44,    289,    0.7,    1.4,   0.00,   0.00, 1026.5,   85.8, -999.0
20-01-2022, 00:42:54,    304,    0.4,    1.3,   0.00,   0.00, 1026.5,   85.7, -999.0
20-01-2022, 00:43:04,    312,    0.1,    1.3,   0.00,   0.00, 1026.4,   85.5, -999.0
20-01-2022, 00:43:13,    353,    0.7,    1.4,   0.00,   0.00, 1026.6,   85.7, -999.0
20-01-2022, 00:43:24,    324,    0.4,    1.3,   0.00,   0.00, 1026.4,   85.5, -999.0
20-01-2022, 00:43:34,    296,    1.1,    1.4,   0.00,   0.00, 1026.5,   85.7, -999.0
20-01-2022, 00:43:43,    309,    1.4,    1.3,   0.00,   0.00, 1026.6,   85.8, -999.0
20-01-2022, 00:43:54,    304,    0.3,    1.3,   0.00,   0.00, 1026.5,   85.6, -999.0
20-01-2022, 00:44:04,    304,    0.1,    1.3,   0.00,   0.00, 1026.5,   85.6, -999.0
20-01-2022, 00:44:13,    308,    0.6,    1.4,   0.00,   0.00, 1026.6,   85.8, -999.0
20-01-2022, 00:44:23,    326,    0.5,    1.3,   0.00,   0.00, 1026.5,   85.7, -999.0
20-01-2022, 00:44:33,    325,    1.7,    1.4,   0.00,   0.00, 1026.6,   85.8, -999.0
20-01-2022, 00:44:43,    325,    1.4,    1.4,   0.00,   0.00, 1026.5,   85.8, -999.0
20-01-2022, 00:44:53,    324,    0.4,    1.4,   0.00,   0.00, 1026.6,   85.8, -999.0
20-01-2022, 00:45:03,    324,    0.1,    1.4,   0.00,   0.00, 1026.5,   85.6, -999.0
20-01-2022, 00:45:13,    324,    0.0,    1.3,   0.00,   0.00, 1026.5,   85.5, -999.0
20-01-2022, 00:45:23,    325,    0.1,    1.2,   0.00,   0.00, 1026.5,   85.3, -999.0
20-01-2022, 00:45:33,    324,    0.5,    1.3,   0.00,   0.00, 1026.5,   85.6, -999.0
20-01-2022, 00:45:43,    324,    0.0,    1.4,   0.00,   0.00, 1026.4,   85.3, -999.0
20-01-2022, 00:45:53,    324,    0.0,    1.3,   0.00,   0.00, 1026.5,   85.4, -999.0
20-01-2022, 00:46:03,    323,    1.1,    1.4,   0.00,   0.00, 1026.6,   85.6, -999.0
20-01-2022, 00:46:13,    323,    0.9,    1.3,   0.00,   0.00, 1026.6,   85.6, -999.0
20-01-2022, 00:46:23,    322,    0.4,    1.3,   0.00,   0.00, 1026.6,   85.6, -999.0
20-01-2022, 00:46:33,    331,    1.2,    1.3,   0.00,   0.00, 1026.6,   85.7, -999.0
20-01-2022, 00:46:43,    331,    2.0,    1.4,   0.00,   0.00, 1026.6,   85.9, -999.0